Time,TemperatureF,DewpointF,PressureIn,WindDirection,WindDirectionDegrees,WindSpeedMPH,WindSpeedGustMPH,Humidity,HourlyPrecipIn,Conditions,Clouds,dailyrainin,SolarRadiationWatts/m^2,SoftwareType,DateUTC
2013-03-05 00:00:00,21.0,17.0,-100.00,SW,218,0.0,1.0,84,-99.99,,,0.00,-0.200000,,2013-03-05 08:00:00,
2013-03-05 00:52:00,21.0,17.0,-100.00,SW,218,0.0,1.0,84,-99.99,,,0.00,-0.200000,,2013-03-05 08:52:00,
2013-03-05 01:00:00,21.0,17.0,-100.00,NNW,344,0.0,0.0,84,-99.99,,,0.00,-0.200000,,2013-03-05 09:00:00,
2013-03-05 01:52:00,21.0,17.0,-100.00,NNW,344,0.0,0.0,84,-99.99,,,0.00,-0.200000,,2013-03-05 09:52:00,
2013-03-05 02:00:00,23.0,17.0,-100.00,WNW,302,1.0,2.0,80,-99.99,,,-99.99,-0.200000,,2013-03-05 10:00:00,
2013-03-05 03:00:00,22.0,17.0,-100.00,WSW,240,1.0,2.0,81,-99.99,,,0.00,-0.200000,,2013-03-05 11:00:00,
2013-03-05 03:52:00,22.0,17.0,-100.00,WSW,240,1.0,2.0,81,-99.99,,,0.00,-0.200000,,2013-03-05 11:52:00,
2013-03-05 04:00:00,23.0,17.0,-100.00,SW,223,1.0,1.0,80,-99.99,,,0.00,-0.200000,,2013-03-05 12:00:00,
2013-03-05 04:52:00,23.0,17.0,-100.00,SW,223,1.0,1.0,80,-99.99,,,0.00,-0.200000,,2013-03-05 12:52:00,
2013-03-05 05:00:00,23.0,17.0,-100.00,WNW,282,0.0,1.0,77,-99.99,,,0.00,4.200000,,2013-03-05 13:00:00,
2013-03-05 05:52:00,23.0,17.0,-100.00,WNW,282,0.0,1.0,77,-99.99,,,0.00,4.200000,,2013-03-05 13:52:00,
2013-03-05 06:00:00,23.0,16.0,-100.00,WSW,258,1.0,2.0,74,-99.99,,,0.00,-0.200000,,2013-03-05 14:00:00,
2013-03-05 06:52:00,23.0,16.0,-100.00,WSW,258,1.0,2.0,74,-99.99,,,0.00,-0.200000,,2013-03-05 14:52:00,
2013-03-05 07:00:00,23.0,17.0,-100.00,West,263,1.0,2.0,78,-99.99,,,-99.99,2.900000,,2013-03-05 15:00:00,
2013-03-05 07:52:00,23.0,17.0,-100.00,West,263,1.0,2.0,78,-99.99,,,-99.99,2.900000,,2013-03-05 15:52:00,
2013-03-05 08:00:00,23.0,18.0,-100.00,WSW,258,2.0,3.0,79,-99.99,,,0.00,42.900002,,2013-03-05 16:00:00,
2013-03-05 08:52:00,23.0,18.0,-100.00,WSW,258,2.0,3.0,79,-99.99,,,0.00,42.900002,,2013-03-05 16:52:00,
2013-03-05 09:00:00,24.0,17.0,-100.00,WNW,290,2.0,3.0,77,-99.99,,,0.00,59.599998,,2013-03-05 17:00:00,
2013-03-05 09:52:00,24.0,17.0,-100.00,WNW,290,2.0,3.0,77,-99.99,,,0.00,59.599998,,2013-03-05 17:52:00,
2013-03-05 10:00:00,25.0,19.0,-100.00,West,265,2.0,4.0,77,-99.99,,,-99.99,159.300003,,2013-03-05 18:00:00,
2013-03-05 10:53:00,25.0,19.0,-100.00,West,265,2.0,4.0,77,-99.99,,,-99.99,159.300003,,2013-03-05 18:53:00,
2013-03-05 11:00:00,26.0,18.0,-100.00,WSW,248,3.0,5.0,72,-99.99,,,0.00,193.600006,,2013-03-05 19:00:00,
2013-03-05 11:52:00,26.0,18.0,-100.00,WSW,248,3.0,5.0,72,-99.99,,,0.00,193.600006,,2013-03-05 19:52:00,
2013-03-05 12:00:00,25.0,19.0,-100.00,SW,233,2.0,5.0,77,-99.99,,,0.00,176.500000,,2013-03-05 20:00:00,
2013-03-05 12:52:00,25.0,19.0,-100.00,SW,233,2.0,5.0,77,-99.99,,,0.00,176.500000,,2013-03-05 20:52:00,
2013-03-05 13:00:00,24.0,21.0,-100.00,WSW,257,2.0,5.0,87,-99.99,,,0.00,140.899994,,2013-03-05 21:00:00,
2013-03-05 13:52:00,24.0,21.0,-100.00,WSW,257,2.0,5.0,87,-99.99,,,0.00,140.899994,,2013-03-05 21:52:00,
2013-03-05 14:00:00,24.0,22.0,-100.00,NW,311,3.0,5.0,92,-99.99,,,0.00,198.899994,,2013-03-05 22:00:00,
2013-03-05 14:52:00,24.0,22.0,-100.00,NW,311,3.0,5.0,92,-99.99,,,0.00,198.899994,,2013-03-05 22:52:00,
2013-03-05 15:00:00,23.0,22.0,-100.00,West,279,2.0,5.0,95,-99.99,,,0.01,93.900002,,2013-03-05 23:00:00,
2013-03-05 15:52:00,23.0,22.0,-100.00,West,279,2.0,5.0,95,-99.99,,,0.01,93.900002,,2013-03-05 23:52:00,
2013-03-05 16:00:00,24.0,22.0,-100.00,WSW,255,2.0,4.0,95,-99.99,,,0.01,65.699997,,2013-03-06 00:00:00,
2013-03-05 16:52:00,24.0,22.0,-100.00,WSW,255,2.0,4.0,95,-99.99,,,0.01,65.699997,,2013-03-06 00:52:00,
2013-03-05 17:00:00,24.0,22.0,-100.00,NNW,330,2.0,3.0,95,-99.99,,,0.01,38.900002,,2013-03-06 01:00:00,
2013-03-05 17:52:00,24.0,22.0,-100.00,NNW,330,2.0,3.0,95,-99.99,,,0.01,38.900002,,2013-03-06 01:52:00,
2013-03-05 18:00:00,23.0,-99.9,-100.00,North,-999,-999.0,-999.0,-999,-99.99,,,0.01,,,2013-03-06 02:00:00,
2013-03-05 18:52:00,23.0,-99.9,-100.00,North,-999,-999.0,-999.0,-999,-99.99,,,0.01,,,2013-03-06 02:52:00,
2013-03-05 19:00:00,24.0,23.0,-100.00,NW,326,2.0,4.0,97,-99.99,,,0.01,-0.200000,,2013-03-06 03:00:00,
2013-03-05 20:00:00,24.0,24.0,-100.00,NW,305,1.0,2.0,97,-99.99,,,0.01,-0.200000,,2013-03-06 04:00:00,
2013-03-05 20:52:00,24.0,24.0,-100.00,NW,305,1.0,2.0,97,-99.99,,,0.01,-0.200000,,2013-03-06 04:52:00,
2013-03-05 21:00:00,24.0,24.0,-100.00,WNW,285,1.0,2.0,97,-99.99,,,0.01,-0.200000,,2013-03-06 05:00:00,
2013-03-05 21:52:00,24.0,24.0,-100.00,WNW,285,1.0,2.0,97,-99.99,,,0.01,-0.200000,,2013-03-06 05:52:00,
2013-03-05 22:00:00,24.0,24.0,-100.00,WSW,238,1.0,2.0,97,-99.99,,,0.01,-0.200000,,2013-03-06 06:00:00,
2013-03-05 22:52:00,24.0,24.0,-100.00,WSW,238,1.0,2.0,97,-99.99,,,0.01,-0.200000,,2013-03-06 06:52:00,
2013-03-05 23:00:00,24.0,24.0,-100.00,WNW,293,0.0,2.0,97,-99.99,,,0.01,-0.200000,,2013-03-06 07:00:00,
2013-03-05 23:52:00,24.0,24.0,-100.00,WNW,293,0.0,2.0,97,-99.99,,,0.01,-0.200000,,2013-03-06 07:52:00,